Location: Cointrin
(46.2167°N, 6.1167°E)
Time: 11:17:30
(UTC+00:00)

Cosmos 2278 Rocket - Visible Passes

Search period start: 02 October 2023 00:00
Search period end: 12 October 2023 00:00
Orbit: 839 x 846 km, 71.0° (Epoch: 01 October)

Date Brightness Start Highest point End Pass type
(mag) Time Alt. Az. Time Alt. Az. Time Alt. Az.
02 Oct 2.9 19:01:43 10° NW 19:07:13 53° WSW 19:12:42 10° S visible
03 Oct 2.8 18:47:01 10° NW 18:52:33 56° WSW 18:58:03 10° S visible
04 Oct 2.8 18:32:19 10° NNW 18:37:53 58° WSW 18:43:24 10° S visible
05 Oct 2.8 18:17:37 10° NNW 18:23:13 61° WSW 18:28:45 10° S visible
06 Oct 2.7 18:02:55 10° NNW 18:08:33 64° WSW 18:14:06 10° SSE visible
07 Oct 2.7 17:48:15 10° NNW 17:53:52 66° WSW 17:59:27 10° SSE visible
08 Oct 2.6 17:33:33 10° NNW 17:39:12 69° WSW 17:44:48 10° SSE visible
09 Oct 5.4 19:06:33 10° W 19:07:31 10° W 19:08:29 10° WSW visible
10 Oct 5.4 18:51:23 10° W 18:52:53 11° W 18:54:23 10° WSW visible
11 Oct 5.4 18:36:21 10° WNW 18:38:15 12° W 18:40:08 10° WSW visible
